This is the latest recevied weather packets stored in our database for station/object W5ZYX. If no packets are shown the sender has not sent any weather packets the latest 1 day(s).
| Time | Temp. | Humidity | Pressure | Rain* | Wind** | Luminosity | Snow |
|---|---|---|---|---|---|---|---|
| 1778031048 | 26.11° C | 81% | 1007.4 hPa | 0 mm | 0.45 m/s, 191° | - | - |
| 1778030739 | 26.11° C | 81% | 1007.2 hPa | 0 mm | 1.34 m/s, 180° | - | - |
| 1778030438 | 26.11° C | 81% | 1007 hPa | 0 mm | 1.79 m/s, 148° | - | - |
| 1778030155 | 26.11° C | 81% | 1006.9 hPa | 0 mm | 1.79 m/s, 153° | - | - |
| 1778029838 | 26.11° C | 80% | 1006.8 hPa | 0 mm | 1.34 m/s, 159° | - | - |
| 1778029536 | 26.11° C | 80% | 1006.8 hPa | 0 mm | 1.34 m/s, 175° | - | - |
| 1778029248 | 26.67° C | 80% | 1006.8 hPa | 0 mm | 2.68 m/s, 161° | - | - |
| 1778028939 | 26.67° C | 80% | 1006.8 hPa | 0 mm | 2.24 m/s, 178° | - | - |
| 1778028637 | 26.67° C | 80% | 1006.7 hPa | 0 mm | 2.24 m/s, 192° | - | - |
| 1778028347 | 26.67° C | 79% | 1006.7 hPa | 0 mm | 1.34 m/s, 160° | - | - |
| 1778028047 | 26.67° C | 79% | 1006.7 hPa | 0 mm | 1.79 m/s, 174° | - | - |
| 1778027738 | 26.67° C | 79% | 1006.6 hPa | 0 mm | 2.24 m/s, 169° | - | - |
| 1778027452 | 27.22° C | 78% | 1006.6 hPa | 0 mm | 2.24 m/s, 203° | - | - |
| 1778027136 | 27.22° C | 78% | 1006.6 hPa | 0 mm | 2.24 m/s, 205° | - | - |
| 1778026836 | 27.22° C | 78% | 1006.6 hPa | 0 mm | 2.24 m/s, 178° | - | - |
| 1778026556 | 27.22° C | 79% | 1006.5 hPa | 0 mm | 1.79 m/s, 188° | - | - |
| 1778026239 | 27.22° C | 78% | 1006.4 hPa | 0 mm | 0.89 m/s, 167° | - | - |
| 1778025940 | 27.22° C | 78% | 1006.2 hPa | 0 mm | 2.24 m/s, 188° | - | - |
| 1778025649 | 27.22° C | 77% | 1006.2 hPa | 0 mm | 0.89 m/s, 167° | - | - |
| 1778025339 | 27.22° C | 77% | 1006.2 hPa | 0 mm | 1.79 m/s, 187° | - | - |
| 1778025036 | 27.78° C | 77% | 1006.1 hPa | 0 mm | 1.34 m/s, 188° | - | - |
| 1778024767 | 27.78° C | 76% | 1006.2 hPa | 0 mm | 1.79 m/s, 171° | - | - |
| 1778024437 | 27.78° C | 76% | 1006.2 hPa | 0 mm | 2.24 m/s, 188° | - | - |
| 1778024136 | 27.78° C | 76% | 1006.3 hPa | 0 mm | 2.68 m/s, 178° | - | - |
| 1778023849 | 27.78° C | 76% | 1006.3 hPa | 0 mm | 2.68 m/s, 169° | - | - |
* Rain latest hour (hover to see other rain measurements)
** Current wind speed in m/s (hover to see current wind gust speed)